Location: Molveno
(46.1500°N, 10.9667°E)
Time: 15:53:36
(UTC+00:00)

Cosmos 1408 Rocket - Pass Details

Date: 05 July 2020
Orbit: 601 x 630 km, 82.6° (Epoch: 10 August)

Event Time Altitude Azimuth Distance (km) Brightness Sun altitude
Exits shadow 23:35:56 40° 243° (WSW) 913 4.1 -21.1°
Maximum altitude 23:36:56 48° 283° (WNW) 808 4.1 -21.1°
Drops below altitude 10° 23:41:14 10° 358° (N) 1,999 7.3 -21.0°
Sets 23:43:33 0° 5° (N) 2,915 8.6 -21.0°
